Time,TemperatureF,DewpointF,PressureIn,WindDirection,WindDirectionDegrees,WindSpeedMPH,WindSpeedGustMPH,Humidity,HourlyPrecipIn,Conditions,Clouds,dailyrainin,SoftwareType,DateUTC
2013-05-31 00:02:00,75.0,72.0,30.02,ESE,106,0.0,1.0,90,0.00,,,1.41,,2013-05-31 04:02:00,
2013-05-31 00:12:00,75.0,72.0,30.02,ESE,106,0.0,1.0,90,0.00,,,1.41,,2013-05-31 04:12:00,
2013-05-31 00:22:00,74.0,71.0,30.02,ENE,78,0.0,1.0,90,0.00,,,0.97,,2013-05-31 04:22:00,
2013-05-31 00:33:00,74.0,71.0,30.02,East,93,0.0,1.0,91,0.00,,,0.97,,2013-05-31 04:33:00,
2013-05-31 00:42:00,74.0,71.0,30.02,East,93,0.0,1.0,91,0.00,,,0.97,,2013-05-31 04:42:00,
2013-05-31 00:53:00,74.0,71.0,30.01,East,98,0.0,1.0,91,0.00,,,0.97,,2013-05-31 04:53:00,
2013-05-31 01:02:00,74.0,71.0,30.01,East,88,0.0,1.0,91,0.01,,,0.98,,2013-05-31 05:02:00,
2013-05-31 01:12:00,74.0,71.0,30.01,East,88,0.0,1.0,91,0.01,,,0.98,,2013-05-31 05:12:00,
2013-05-31 01:22:00,74.0,72.0,30.00,ESE,103,0.0,1.0,92,0.01,,,0.80,,2013-05-31 05:22:00,
2013-05-31 01:32:00,74.0,72.0,30.01,ESE,122,0.0,1.0,92,0.01,,,0.80,,2013-05-31 05:32:00,
2013-05-31 01:42:00,74.0,72.0,30.01,ESE,122,0.0,1.0,92,0.01,,,0.80,,2013-05-31 05:42:00,
2013-05-31 01:52:00,74.0,72.0,29.99,ESE,104,0.0,1.0,92,0.00,,,0.80,,2013-05-31 05:52:00,
2013-05-31 02:02:00,74.0,72.0,29.99,ESE,113,1.0,1.0,92,0.00,,,0.80,,2013-05-31 06:02:00,
2013-05-31 02:12:00,74.0,72.0,29.99,ESE,113,1.0,1.0,92,0.00,,,0.80,,2013-05-31 06:12:00,
2013-05-31 02:22:00,75.0,73.0,29.98,ESE,114,0.0,1.0,92,0.00,,,0.68,,2013-05-31 06:22:00,
2013-05-31 02:32:00,75.0,73.0,29.98,ESE,112,0.0,1.0,92,0.00,,,0.68,,2013-05-31 06:32:00,
2013-05-31 02:42:00,75.0,73.0,29.98,ESE,112,0.0,1.0,92,0.00,,,0.68,,2013-05-31 06:42:00,
2013-05-31 02:52:00,75.0,73.0,29.98,East,81,1.0,1.0,92,0.00,,,0.68,,2013-05-31 06:52:00,
2013-05-31 03:02:00,75.0,73.0,29.97,East,89,0.0,1.0,93,0.00,,,0.68,,2013-05-31 07:02:00,
2013-05-31 03:11:00,75.0,73.0,29.97,East,89,0.0,1.0,93,0.00,,,0.68,,2013-05-31 07:11:00,
2013-05-31 03:21:00,76.0,74.0,29.97,ESE,114,0.0,1.0,93,0.00,,,0.41,,2013-05-31 07:21:00,
2013-05-31 03:32:00,76.0,74.0,29.97,ESE,113,0.0,1.0,92,0.00,,,0.41,,2013-05-31 07:32:00,
2013-05-31 03:41:00,76.0,74.0,29.97,ESE,113,0.0,1.0,92,0.00,,,0.41,,2013-05-31 07:41:00,
2013-05-31 03:53:00,76.0,74.0,29.96,ESE,111,0.0,1.0,92,0.00,,,0.41,,2013-05-31 07:53:00,
2013-05-31 04:02:00,76.0,74.0,29.96,ESE,110,1.0,1.0,93,0.00,,,0.41,,2013-05-31 08:02:00,
2013-05-31 04:11:00,76.0,74.0,29.96,ESE,110,1.0,1.0,93,0.00,,,0.41,,2013-05-31 08:11:00,
2013-05-31 04:22:00,76.0,74.0,29.96,ESE,111,0.0,0.0,92,0.00,,,0.34,,2013-05-31 08:22:00,
2013-05-31 04:32:00,76.0,74.0,29.96,ESE,110,0.0,0.0,92,0.00,,,0.34,,2013-05-31 08:32:00,
2013-05-31 04:42:00,76.0,74.0,29.96,ESE,110,0.0,0.0,92,0.00,,,0.34,,2013-05-31 08:42:00,
2013-05-31 04:52:00,76.0,74.0,29.97,ESE,110,0.0,0.0,92,0.00,,,0.34,,2013-05-31 08:52:00,
2013-05-31 05:01:00,76.0,74.0,29.97,ESE,110,0.0,0.0,92,0.00,,,0.34,,2013-05-31 09:01:00,
2013-05-31 05:11:00,76.0,74.0,29.97,ESE,110,0.0,0.0,92,0.00,,,0.34,,2013-05-31 09:11:00,
2013-05-31 05:21:00,76.0,74.0,29.97,ESE,111,0.0,1.0,93,0.00,,,0.34,,2013-05-31 09:21:00,
2013-05-31 05:32:00,77.0,75.0,29.97,ESE,110,0.0,1.0,93,0.00,,,0.34,,2013-05-31 09:32:00,
2013-05-31 05:43:00,77.0,75.0,29.97,ESE,110,0.0,1.0,93,0.00,,,0.34,,2013-05-31 09:43:00,
2013-05-31 05:53:00,77.0,75.0,29.98,ESE,110,0.0,0.0,93,0.00,,,0.34,,2013-05-31 09:53:00,
2013-05-31 06:02:00,76.0,74.0,29.98,ESE,110,0.0,0.0,93,0.00,,,0.34,,2013-05-31 10:02:00,
2013-05-31 06:12:00,76.0,74.0,29.98,ESE,110,0.0,0.0,93,0.00,,,0.34,,2013-05-31 10:12:00,
2013-05-31 06:22:00,76.0,74.0,29.98,ESE,110,0.0,0.0,93,0.00,,,0.34,,2013-05-31 10:22:00,
2013-05-31 06:33:00,76.0,74.0,29.98,ESE,110,0.0,0.0,93,0.00,,,0.34,,2013-05-31 10:33:00,
2013-05-31 06:42:00,76.0,74.0,29.98,ESE,110,0.0,0.0,93,0.00,,,0.34,,2013-05-31 10:42:00,
2013-05-31 06:52:00,75.0,73.0,29.99,ESE,110,0.0,0.0,93,0.00,,,0.34,,2013-05-31 10:52:00,
2013-05-31 07:02:00,75.0,73.0,29.99,ESE,110,0.0,0.0,93,0.00,,,0.34,,2013-05-31 11:02:00,
2013-05-31 07:12:00,75.0,73.0,29.99,ESE,110,0.0,0.0,93,0.00,,,0.34,,2013-05-31 11:12:00,
2013-05-31 07:22:00,76.0,74.0,30.00,ESE,110,0.0,0.0,93,0.00,,,0.34,,2013-05-31 11:22:00,
2013-05-31 07:32:00,76.0,74.0,30.01,ESE,110,0.0,0.0,94,0.00,,,0.34,,2013-05-31 11:32:00,
2013-05-31 07:42:00,76.0,74.0,30.01,ESE,110,0.0,0.0,94,0.00,,,0.34,,2013-05-31 11:42:00,
2013-05-31 07:52:00,76.0,74.0,30.01,ESE,108,0.0,1.0,94,0.00,,,0.34,,2013-05-31 11:52:00,
2013-05-31 08:01:00,77.0,75.0,30.01,ESE,107,0.0,0.0,94,0.00,,,0.34,,2013-05-31 12:01:00,
2013-05-31 08:11:00,77.0,75.0,30.01,ESE,107,0.0,0.0,94,0.00,,,0.34,,2013-05-31 12:11:00,
2013-05-31 08:22:00,79.0,77.0,30.01,East,79,0.0,1.0,94,0.00,,,0.34,,2013-05-31 12:22:00,
2013-05-31 08:32:00,79.0,77.0,30.00,ENE,70,0.0,1.0,93,0.00,,,0.34,,2013-05-31 12:32:00,
2013-05-31 08:42:00,79.0,77.0,30.00,ENE,70,0.0,1.0,93,0.00,,,0.34,,2013-05-31 12:42:00,
2013-05-31 08:52:00,81.0,77.0,30.01,ENE,72,0.0,1.0,89,0.00,,,0.34,,2013-05-31 12:52:00,
2013-05-31 09:01:00,81.0,77.0,30.01,ESE,110,0.0,1.0,87,0.00,,,0.34,,2013-05-31 13:01:00,
2013-05-31 09:11:00,81.0,77.0,30.01,ESE,110,0.0,1.0,87,0.00,,,0.34,,2013-05-31 13:11:00,
2013-05-31 09:21:00,80.0,75.0,30.01,NE,45,0.0,1.0,86,0.00,,,0.34,,2013-05-31 13:21:00,
2013-05-31 09:32:00,81.0,76.0,30.01,ENE,74,0.0,1.0,85,0.00,,,0.34,,2013-05-31 13:32:00,
2013-05-31 09:42:00,81.0,76.0,30.01,ENE,74,0.0,1.0,85,0.00,,,0.34,,2013-05-31 13:42:00,
2013-05-31 09:52:00,81.0,76.0,30.01,East,97,0.0,1.0,85,0.00,,,0.34,,2013-05-31 13:52:00,
2013-05-31 10:02:00,82.0,77.0,30.01,ENE,60,0.0,1.0,85,0.00,,,0.34,,2013-05-31 14:02:00,
2013-05-31 10:11:00,82.0,77.0,30.01,ENE,60,0.0,1.0,85,0.00,,,0.34,,2013-05-31 14:11:00,
2013-05-31 10:21:00,82.0,77.0,30.01,East,81,0.0,1.0,84,0.00,,,0.34,,2013-05-31 14:21:00,
2013-05-31 10:32:00,82.0,77.0,30.01,East,92,0.0,1.0,84,0.00,,,0.34,,2013-05-31 14:32:00,
2013-05-31 10:42:00,82.0,77.0,30.01,East,92,0.0,1.0,84,0.00,,,0.34,,2013-05-31 14:42:00,
2013-05-31 10:52:00,82.0,76.0,30.01,ESE,110,0.0,1.0,83,0.00,,,0.34,,2013-05-31 14:52:00,
2013-05-31 11:01:00,82.0,76.0,30.01,ESE,110,0.0,1.0,83,0.00,,,0.34,,2013-05-31 15:01:00,
2013-05-31 11:11:00,82.0,76.0,30.01,ESE,110,0.0,1.0,83,0.00,,,0.34,,2013-05-31 15:11:00,
2013-05-31 11:21:00,82.0,77.0,30.01,ENE,74,0.0,1.0,84,0.00,,,0.34,,2013-05-31 15:21:00,
2013-05-31 11:33:00,82.0,77.0,30.02,East,87,0.0,1.0,85,0.00,,,0.34,,2013-05-31 15:33:00,
2013-05-31 11:43:00,82.0,77.0,30.02,East,87,0.0,1.0,85,0.00,,,0.34,,2013-05-31 15:43:00,
2013-05-31 11:53:00,82.0,77.0,30.02,East,96,0.0,1.0,84,0.00,,,0.34,,2013-05-31 15:53:00,
2013-05-31 12:03:00,83.0,78.0,30.02,ESE,114,0.0,1.0,84,0.00,,,0.34,,2013-05-31 16:03:00,
2013-05-31 12:12:00,83.0,78.0,30.02,ESE,114,0.0,1.0,84,0.00,,,0.34,,2013-05-31 16:12:00,
2013-05-31 12:22:00,84.0,78.0,30.02,East,86,0.0,1.0,82,0.00,,,0.34,,2013-05-31 16:22:00,
2013-05-31 12:33:00,84.0,78.0,30.01,ESE,116,0.0,1.0,82,0.00,,,0.34,,2013-05-31 16:33:00,
2013-05-31 12:42:00,84.0,78.0,30.01,ESE,116,0.0,1.0,82,0.00,,,0.34,,2013-05-31 16:42:00,
2013-05-31 12:53:00,83.0,77.0,30.01,East,101,0.0,1.0,83,0.00,,,0.34,,2013-05-31 16:53:00,
2013-05-31 13:02:00,84.0,78.0,30.01,East,100,1.0,1.0,82,0.00,,,0.34,,2013-05-31 17:02:00,
2013-05-31 13:12:00,84.0,78.0,30.01,East,100,1.0,1.0,82,0.00,,,0.34,,2013-05-31 17:12:00,
2013-05-31 13:22:00,84.0,78.0,30.01,ESE,109,0.0,1.0,81,0.00,,,0.18,,2013-05-31 17:22:00,
2013-05-31 13:32:00,84.0,78.0,30.01,ESE,112,0.0,1.0,82,0.00,,,0.18,,2013-05-31 17:32:00,
2013-05-31 13:42:00,84.0,78.0,30.01,ESE,112,0.0,1.0,82,0.00,,,0.18,,2013-05-31 17:42:00,
2013-05-31 13:52:00,85.0,78.0,30.01,East,100,0.0,1.0,80,0.00,,,0.18,,2013-05-31 17:52:00,
2013-05-31 14:02:00,84.0,77.0,30.01,ENE,72,0.0,1.0,80,0.00,,,0.18,,2013-05-31 18:02:00,
2013-05-31 14:12:00,84.0,77.0,30.01,ENE,72,0.0,1.0,80,0.00,,,0.18,,2013-05-31 18:12:00,
2013-05-31 14:22:00,84.0,76.0,30.01,NE,47,0.0,1.0,77,0.00,,,0.03,,2013-05-31 18:22:00,
2013-05-31 14:32:00,84.0,76.0,30.00,ENE,63,0.0,1.0,77,0.00,,,0.03,,2013-05-31 18:32:00,
2013-05-31 14:42:00,84.0,76.0,30.00,ENE,63,0.0,1.0,77,0.00,,,0.03,,2013-05-31 18:42:00,
2013-05-31 14:52:00,84.0,77.0,29.99,ESE,104,0.0,1.0,79,0.00,,,0.03,,2013-05-31 18:52:00,
2013-05-31 15:02:00,84.0,78.0,29.99,NE,56,0.0,1.0,81,0.00,,,0.03,,2013-05-31 19:02:00,
2013-05-31 15:11:00,84.0,78.0,29.99,NE,56,0.0,1.0,81,0.00,,,0.03,,2013-05-31 19:11:00,
2013-05-31 15:22:00,84.0,78.0,29.99,ESE,118,0.0,1.0,81,0.00,,,0.03,,2013-05-31 19:22:00,
2013-05-31 15:32:00,84.0,78.0,29.98,East,79,0.0,1.0,81,0.00,,,0.03,,2013-05-31 19:32:00,
2013-05-31 15:42:00,84.0,78.0,29.98,East,79,0.0,1.0,81,0.00,,,0.03,,2013-05-31 19:42:00,
2013-05-31 15:52:00,83.0,77.0,29.99,ESE,122,0.0,1.0,81,0.00,,,0.03,,2013-05-31 19:52:00,
2013-05-31 16:02:00,81.0,76.0,29.98,ESE,106,0.0,1.0,84,0.00,,,0.03,,2013-05-31 20:02:00,
2013-05-31 16:11:00,81.0,76.0,29.98,ESE,106,0.0,1.0,84,0.00,,,0.03,,2013-05-31 20:11:00,
2013-05-31 16:22:00,82.0,77.0,29.98,SE,126,0.0,1.0,85,0.00,,,0.03,,2013-05-31 20:22:00,
2013-05-31 16:32:00,81.0,76.0,29.99,SE,125,0.0,1.0,84,0.00,,,0.03,,2013-05-31 20:32:00,
2013-05-31 16:42:00,81.0,76.0,29.99,SE,125,0.0,1.0,84,0.00,,,0.03,,2013-05-31 20:42:00,
2013-05-31 16:52:00,81.0,76.0,29.99,ESE,112,0.0,1.0,85,0.00,,,0.03,,2013-05-31 20:52:00,
2013-05-31 17:01:00,81.0,76.0,29.98,SE,126,0.0,1.0,85,0.00,,,0.03,,2013-05-31 21:01:00,
2013-05-31 17:11:00,81.0,76.0,29.98,SE,126,0.0,1.0,85,0.00,,,0.03,,2013-05-31 21:11:00,
2013-05-31 17:22:00,81.0,76.0,29.98,East,88,0.0,2.0,86,0.00,,,0.03,,2013-05-31 21:22:00,
2013-05-31 17:32:00,80.0,75.0,29.97,SE,132,5.0,8.0,86,0.00,,,0.03,,2013-05-31 21:32:00,
2013-05-31 17:42:00,80.0,75.0,29.97,SE,140,1.0,1.0,85,0.00,,,0.03,,2013-05-31 21:42:00,
2013-05-31 17:54:00,80.0,75.0,29.97,SE,140,1.0,1.0,85,0.00,,,0.03,,2013-05-31 21:54:00,
2013-05-31 18:02:00,80.0,75.0,29.97,SE,145,0.0,1.0,85,0.00,,,0.03,,2013-05-31 22:02:00,
2013-05-31 18:12:00,80.0,75.0,29.97,SE,145,0.0,1.0,85,0.00,,,0.03,,2013-05-31 22:12:00,
2013-05-31 18:22:00,80.0,75.0,29.98,SSE,147,3.0,6.0,85,0.00,,,0.03,,2013-05-31 22:22:00,
2013-05-31 18:33:00,80.0,75.0,29.98,SE,143,3.0,6.0,85,0.00,,,0.03,,2013-05-31 22:33:00,
2013-05-31 18:42:00,80.0,75.0,29.97,SE,139,3.0,8.0,85,0.00,,,0.03,,2013-05-31 22:42:00,
2013-05-31 18:53:00,80.0,75.0,29.97,SE,139,3.0,8.0,85,0.00,,,0.03,,2013-05-31 22:53:00,
2013-05-31 19:02:00,80.0,75.0,29.98,SE,137,5.0,10.0,85,0.00,,,0.03,,2013-05-31 23:02:00,
2013-05-31 19:12:00,80.0,75.0,29.98,SE,137,5.0,10.0,85,0.00,,,0.03,,2013-05-31 23:12:00,
2013-05-31 19:21:00,80.0,75.0,29.98,SE,136,4.0,8.0,85,0.00,,,0.03,,2013-05-31 23:21:00,
2013-05-31 19:32:00,80.0,75.0,29.98,SE,131,4.0,9.0,85,0.00,,,0.03,,2013-05-31 23:32:00,
2013-05-31 19:42:00,79.0,74.0,29.99,SE,137,2.0,8.0,85,0.00,,,0.03,,2013-05-31 23:42:00,
2013-05-31 19:52:00,79.0,74.0,29.99,SE,137,2.0,8.0,85,0.00,,,0.03,,2013-05-31 23:52:00,
2013-05-31 20:01:00,79.0,74.0,29.99,SE,136,0.0,6.0,85,0.00,,,0.03,,2013-06-01 00:01:00,
2013-05-31 20:12:00,79.0,74.0,29.99,SE,136,0.0,6.0,85,0.00,,,0.03,,2013-06-01 00:12:00,
2013-05-31 20:22:00,79.0,75.0,30.00,ENE,71,2.0,5.0,87,0.00,,,0.01,,2013-06-01 00:22:00,
2013-05-31 20:32:00,79.0,75.0,30.00,ENE,70,0.0,6.0,87,0.00,,,0.01,,2013-06-01 00:32:00,
2013-05-31 20:42:00,79.0,75.0,29.99,East,79,4.0,8.0,88,0.00,,,0.01,,2013-06-01 00:42:00,
2013-05-31 20:52:00,79.0,75.0,29.99,East,79,4.0,8.0,88,0.00,,,0.01,,2013-06-01 00:52:00,
2013-05-31 21:01:00,79.0,75.0,30.00,East,79,0.0,7.0,89,0.00,,,0.01,,2013-06-01 01:01:00,
2013-05-31 21:11:00,79.0,75.0,30.00,East,79,0.0,7.0,89,0.00,,,0.01,,2013-06-01 01:11:00,
2013-05-31 21:22:00,78.0,74.0,30.00,ENE,70,2.0,9.0,88,0.00,,,0.01,,2013-06-01 01:22:00,
2013-05-31 21:32:00,78.0,74.0,30.00,East,87,2.0,7.0,88,0.00,,,0.01,,2013-06-01 01:32:00,
2013-05-31 21:42:00,78.0,74.0,29.99,ESE,104,3.0,8.0,88,0.00,,,0.01,,2013-06-01 01:42:00,
2013-05-31 21:52:00,78.0,74.0,29.99,ESE,104,3.0,8.0,88,0.00,,,0.01,,2013-06-01 01:52:00,
2013-05-31 22:01:00,78.0,74.0,30.00,East,97,4.0,9.0,88,0.00,,,0.01,,2013-06-01 02:01:00,
2013-05-31 22:12:00,78.0,74.0,30.00,East,100,2.0,7.0,89,0.00,,,0.01,,2013-06-01 02:12:00,
2013-05-31 22:21:00,78.0,74.0,30.00,East,100,2.0,7.0,89,0.00,,,0.01,,2013-06-01 02:21:00,
2013-05-31 22:32:00,78.0,74.0,29.99,East,98,3.0,7.0,89,0.00,,,0.01,,2013-06-01 02:32:00,
2013-05-31 22:42:00,78.0,74.0,30.01,East,81,7.0,9.0,89,0.00,,,0.01,,2013-06-01 02:42:00,
2013-05-31 22:52:00,78.0,74.0,30.01,East,81,7.0,9.0,89,0.00,,,0.01,,2013-06-01 02:52:00,
2013-05-31 23:02:00,78.0,74.0,30.01,East,101,7.0,11.0,89,0.00,,,0.01,,2013-06-01 03:02:00,
2013-05-31 23:11:00,78.0,74.0,30.02,East,87,5.0,10.0,89,0.00,,,0.01,,2013-06-01 03:11:00,
2013-05-31 23:21:00,78.0,74.0,30.02,East,87,5.0,10.0,89,0.00,,,0.01,,2013-06-01 03:21:00,
2013-05-31 23:33:00,78.0,74.0,30.02,East,101,6.0,12.0,89,0.00,,,0.01,,2013-06-01 03:33:00,
2013-05-31 23:43:00,78.0,74.0,30.01,SE,133,5.0,9.0,88,0.00,,,0.01,,2013-06-01 03:43:00,
2013-05-31 23:53:00,78.0,74.0,30.01,SE,133,5.0,9.0,88,0.00,,,0.01,,2013-06-01 03:53:00,